Location: La Trinit�
(48.1620°N, 3.4512°W)
Time: 02:53:33
(UTC+00:00)

Cosmos 1943 Rocket - Pass Details

Date: 08 May 2021
Orbit: 813 x 842 km, 71.0° (Epoch: 13 June)

Event Time Altitude Azimuth Distance (km) Brightness Sun altitude
Exits shadow 23:11:55 42° 115° (ESE) 1,186 2.6 -23.2°
Maximum altitude 23:12:10 42° 108° (ESE) 1,182 2.7 -23.2°
Drops below altitude 10° 23:17:24 10° 39° (NE) 2,448 5.1 -23.4°
Sets 23:19:56 0° 33° (NNE) 3,381 6.0 -23.5°
